Voltar ao catálogo

AUREOLE 2

AtivoCiênciaVLEO
NORAD 7003·PAYLOAD·🇫🇷 France

Lançado Dec 26, 1973 de Plesetsk Cosmodrome

Loading…

Próximas Passagens (próximas 24 horas)

TLE

AtualizadoSource: Space-Track

Época: Sep 14, 2026, 14:01 UTC

1 07003U 73107A   26257.58467686  .00160889  11176-4  43681-3 0  9997
2 07003  73.8853 329.3159 0058683 249.5953 109.8972 15.91043400718598

Acompanhe AUREOLE 2 em tempo real com AllMySat

Download on the App Store